Location: Lafig�re
(44.4503°N, 4.0357°E)
Time: 15:06:48
(UTC+00:00)

deb Explorer IX - Pass Details

Date: 26 January 2021
Orbit: 537 x 1102 km, 38.8° (Epoch: 01 March)

Event Time Altitude Azimuth Distance (km) Brightness Sun altitude
Rises 19:04:51 0° 264° (W) 3,650 ? -24.9°
Reaches altitude 10° 19:07:45 10° 259° (WSW) 2,616 ? -25.4°
Maximum altitude 19:13:40 47° 187° (S) 1,070 ? -26.5°
Enters shadow 19:14:12 46° 170° (S) 1,078 ? -26.6°
Drops below altitude 10° 19:18:43 10° 114° (ESE) 2,230 - -27.4°
Sets 19:21:01 0° 108° (ESE) 3,065 - -27.8°
